Weather History for KICR - July, 2013

Change the Weather History Date:

Tuesday, July 23, 2013

  Actual Average Record
Temperature  
Mean Temperature 69 °F 76 °F  
Max Temperature 77 °F 89 °F 107 °F (2012)
Min Temperature 60 °F 64 °F 60 °F (2013)
Degree Days  
Heating Degree Days 0 0  
Month to date heating degree days 0 0  
Since 1 June heating degree days 53 54  
Since 1 July heating degree days 0 0  
Cooling Degree Days 4 12  
Month to date cooling degree days 254 236  
Year to date cooling degree days 425 411  
Since 1 June cooling degree days 386 381  
Growing Degree Days 19 (Base 50)    
Moisture  
Dew Point 61 °F    
Average Humidity 79    
Maximum Humidity 97    
Minimum Humidity 60    
Precipitation  
Precipitation T in 0.09 in 0.07 in (2008)
Month to date precipitation 2.53 2.17  
Year to date precipitation 13.43 13.89  
Sea Level Pressure  
Sea Level Pressure 29.98 in    
Wind  
Wind Speed 8 mph (East)    
Max Wind Speed 18 mph    
Max Gust Speed 24 mph    
Visibility 10 miles    
Events Thunderstorm    
T = Trace of Precipitation, MM = Missing Value Source: NWS Daily Summary

Daily Weather History Graph

Daily Weather History Graph

Search for Another Location

Airport or City:

Trip Planner

Search our weather history database for the weather conditions in past years. The results will help you decide how hot, cold, wet, or windy it might be!

Date:

Astronomy

Jul. 23, 2013 Rise Set
Actual Time 6:20 AM CDT 9:10 PM CDT
Civil Twilight 5:46 AM CDT 9:44 PM CDT
Nautical Twilight 5:04 AM CDT 10:26 PM CDT
Astronomical Twilight 4:14 AM CDT 11:15 PM CDT
Moon 9:35 PM CDT (7/23) 7:34 AM CDT (7/23)
Length of Visible Light 15h 57m
Length of Day
14h 50m
Full, 99% of the Moon is Illuminated
Jul 23
Full
Jul 29
Last Quarter
Aug 6
New
Aug 14
First Quarter
Aug 20
Full

Hourly Weather History & Observations

Time (CDT) Temp. Dew Point Humidity Pressure Visibility Wind Dir Wind Speed Gust Speed Precip Events Conditions
12:53 AM 66.9 °F 62.1 °F 84% 29.93 in 10.0 mi Calm Calm - N/A Thunderstorm Mostly Cloudy
1:25 AM 66.2 °F 62.6 °F 88% 29.95 in 10.0 mi East 8.1 mph - 0.00 in   Partly Cloudy
1:53 AM 64.9 °F 61.0 °F 87% 29.88 in 10.0 mi SE 16.1 mph - 0.00 in   Clear
2:53 AM 64.0 °F 59.0 °F 84% 29.91 in 10.0 mi East 11.5 mph - N/A   Clear
3:53 AM 62.1 °F 59.0 °F 90% 29.98 in 10.0 mi NNE 5.8 mph - N/A   Clear
4:53 AM 61.0 °F 59.0 °F 93% 30.00 in 10.0 mi North 4.6 mph - N/A   Partly Cloudy
5:53 AM 63.0 °F 59.0 °F 87% 29.92 in 10.0 mi SSE 9.2 mph 19.6 mph N/A   Clear
6:53 AM 61.0 °F 59.0 °F 93% 29.89 in 10.0 mi East 11.5 mph - N/A   Clear
7:53 AM 63.0 °F 60.1 °F 90% 29.94 in 10.0 mi NE 11.5 mph 17.3 mph N/A   Partly Cloudy
8:53 AM 64.0 °F 61.0 °F 90% 29.96 in 10.0 mi East 10.4 mph - N/A   Clear
9:53 AM 68.0 °F 62.1 °F 81% 29.96 in 10.0 mi ESE 10.4 mph - N/A   Clear
10:53 AM 73.0 °F 63.0 °F 71% 29.99 in 10.0 mi ENE 8.1 mph - N/A   Clear
11:53 AM 73.0 °F 62.1 °F 68% 30.01 in 10.0 mi ENE 6.9 mph - N/A   Clear
12:53 PM 75.0 °F 62.1 °F 64% 30.01 in 10.0 mi East 10.4 mph - N/A   Scattered Clouds
1:53 PM 77.0 °F 63.0 °F 62% 30.01 in 10.0 mi ENE 6.9 mph - N/A   Scattered Clouds
2:53 PM 75.0 °F 64.0 °F 69% 30.01 in 10.0 mi NE 10.4 mph - N/A   Mostly Cloudy
3:53 PM 75.9 °F 64.0 °F 67% 30.01 in 10.0 mi ENE 8.1 mph - N/A   Mostly Cloudy
4:53 PM 75.0 °F 63.0 °F 66% 30.01 in 10.0 mi ENE 8.1 mph - N/A   Mostly Cloudy
5:53 PM 75.0 °F 62.1 °F 64% 30.00 in 10.0 mi ENE 8.1 mph - N/A   Partly Cloudy
6:53 PM 75.0 °F 60.1 °F 60% 30.00 in 10.0 mi East 6.9 mph - N/A   Clear
7:53 PM 73.0 °F 60.1 °F 64% 30.01 in 10.0 mi East 9.2 mph - N/A   Mostly Cloudy
8:53 PM 69.1 °F 60.1 °F 73% 30.02 in 10.0 mi ESE 4.6 mph - N/A   Clear
9:53 PM 66.9 °F 60.1 °F 79% 30.03 in 10.0 mi ESE 4.6 mph - N/A   Clear
10:53 PM 64.9 °F 60.1 °F 84% 30.04 in 10.0 mi ESE 4.6 mph - N/A   Clear
11:53 PM 62.1 °F 59.0 °F 90% 30.06 in 10.0 mi East 5.8 mph - N/A   Clear